Allentown, PA

3:56 AM EDT on October 14, 2019 (GMT -0400)
Allentown

Weather History for KXLL - May, 2019

Change the Weather History Date:

Monday, May 6, 2019

  Actual Average (WUND) Record (WUND)
Temperature  
Mean Temperature 63 °F -  
Max Temperature 73 °F - - (-1)
Min Temperature 53 °F - - (-1)
Degree Days  
Heating Degree Days 2    
Growing Degree Days 13 (Base 50)    
Moisture  
Dew Point 55 °F    
Average Humidity 79    
Maximum Humidity 100    
Minimum Humidity 53    
Precipitation  
Precipitation 0.00 in - - ()
Sea Level Pressure  
Sea Level Pressure 29.98 in    
Wind  
Wind Speed 4 mph (SSW)    
Max Wind Speed 9 mph    
Max Gust Speed -    
Visibility 10 miles    
Events      
Averages and records for this station are not official NWS values.
T = Trace of Precipitation, MM = Missing Value Source: NWS Daily Summary

Daily Weather History Graph

Daily Weather History Graph

Search for Another Location

Airport or City:

Astronomy

May. 06, 2019 Rise Set
Actual Time 5:55 AM EDT 8:02 PM EDT
Civil Twilight 5:25 AM EDT 8:32 PM EDT
Nautical Twilight 4:48 AM EDT 9:09 PM EDT
Astronomical Twilight 4:07 AM EDT 9:50 PM EDT
Moon 7:15 AM EDT (5/6) 9:57 PM EDT (5/6)
Length of Visible Light 15h 07m
Length of Day
14h 07m
Waxing Crescent, 3% of the Moon is Illuminated
May 6
Waxing Crescent
May 11
First Quarter
May 18
Full
May 26
Last Quarter
Jun 3
New

Hourly Weather History & Observations

Time (EDT) Temp. Dew Point Humidity Pressure Visibility Wind Dir Wind Speed Gust Speed Precip Events Conditions
12:15 AM 53.6 °F 53.6 °F 100% 29.87 in 10.0 mi NNE 5.8 mph - N/A   Overcast
12:35 AM 55.4 °F 53.6 °F 94% 29.87 in 10.0 mi NE 5.8 mph - N/A   Overcast
12:55 AM 55.4 °F 53.6 °F 94% 29.87 in 10.0 mi NE 8.1 mph - N/A   Overcast
1:15 AM 53.6 °F 53.6 °F 100% 29.88 in 10.0 mi North 4.6 mph - N/A   Overcast
1:35 AM 53.6 °F 53.6 °F 100% 29.88 in 10.0 mi NNE 3.5 mph - N/A   Mostly Cloudy
1:55 AM 53.6 °F 53.6 °F 100% 29.88 in 10.0 mi NNE 3.5 mph - N/A   Mostly Cloudy
2:15 AM 53.6 °F 53.6 °F 100% 29.88 in 10.0 mi Calm Calm - N/A   Overcast
2:35 AM 53.6 °F 53.6 °F 100% 29.88 in 10.0 mi Calm Calm - N/A   Overcast
2:55 AM 53.6 °F 53.6 °F 100% 29.88 in 10.0 mi North 6.9 mph - N/A   Overcast
3:15 AM 53.6 °F 53.6 °F 100% 29.89 in 10.0 mi NE 9.2 mph - N/A   Overcast
3:35 AM 53.6 °F 53.6 °F 100% 29.89 in 10.0 mi NNE 4.6 mph - N/A   Overcast
3:55 AM 53.6 °F 53.6 °F 100% 29.90 in 10.0 mi NE 3.5 mph - N/A   Overcast
4:15 AM 53.6 °F 53.6 °F 100% 29.91 in 10.0 mi NNE 3.5 mph - N/A   Overcast
4:35 AM 53.6 °F 53.6 °F 100% 29.91 in 10.0 mi Calm Calm - N/A   Overcast
4:55 AM 53.6 °F 53.6 °F 100% 29.92 in 10.0 mi Calm Calm - N/A   Overcast
5:15 AM 53.6 °F 53.6 °F 100% 29.93 in 10.0 mi Calm Calm - N/A   Overcast
5:35 AM 53.6 °F 53.6 °F 100% 29.93 in 10.0 mi Calm Calm - N/A   Overcast
5:55 AM 53.6 °F 53.6 °F 100% 29.93 in 10.0 mi NE 3.5 mph - N/A   Overcast
6:15 AM 53.6 °F 51.8 °F 94% 29.94 in 10.0 mi Calm Calm - N/A   Overcast
6:35 AM 53.6 °F 53.6 °F 100% 29.94 in 10.0 mi Calm Calm - N/A   Overcast
6:55 AM 53.6 °F 53.6 °F 100% 29.96 in 10.0 mi North 3.5 mph - N/A   Overcast
7:15 AM 55.4 °F 53.6 °F 94% 29.97 in 10.0 mi Calm Calm - N/A   Overcast
7:35 AM 55.4 °F 53.6 °F 94% 29.98 in 10.0 mi Calm Calm - N/A   Overcast
7:55 AM 55.4 °F 53.6 °F 94% 29.98 in 10.0 mi Calm Calm - N/A   Overcast
8:15 AM 55.4 °F 53.6 °F 94% 29.99 in 10.0 mi Calm Calm - N/A   Overcast
8:35 AM 57.2 °F 53.6 °F 88% 29.99 in 10.0 mi Calm Calm - N/A   Overcast
8:55 AM 57.2 °F 53.6 °F 88% 29.99 in 10.0 mi Calm Calm - N/A   Mostly Cloudy
9:15 AM 59.0 °F 53.6 °F 82% 29.99 in 10.0 mi Calm Calm - N/A   Scattered Clouds
9:35 AM 60.8 °F 53.6 °F 77% 29.99 in 10.0 mi Calm Calm - N/A   Scattered Clouds
9:55 AM 60.8 °F 53.6 °F 77% 30.00 in 10.0 mi Calm Calm - N/A   Mostly Cloudy
10:15 AM 62.6 °F 53.6 °F 72% 30.00 in 10.0 mi Calm Calm - N/A   Mostly Cloudy
10:35 AM 62.6 °F 53.6 °F 72% 30.00 in 10.0 mi Calm Calm - N/A   Mostly Cloudy
10:55 AM 62.6 °F 55.4 °F 77% 30.02 in 10.0 mi Calm Calm - N/A   Mostly Cloudy
11:15 AM 62.6 °F 55.4 °F 77% 30.02 in 10.0 mi NW 4.6 mph - N/A   Overcast
11:35 AM 62.6 °F 55.4 °F 77% 30.02 in 10.0 mi WSW 3.5 mph - N/A   Overcast
11:55 AM 64.4 °F 55.4 °F 73% 30.02 in 10.0 mi SW 4.6 mph - N/A   Overcast
12:15 PM 64.4 °F 55.4 °F 73% 30.02 in 10.0 mi Calm Calm - N/A   Overcast
12:35 PM 64.4 °F 55.4 °F 73% 30.02 in 10.0 mi WSW 3.5 mph - N/A   Overcast
12:55 PM 64.4 °F 57.2 °F 77% 30.01 in 10.0 mi WSW 4.6 mph - N/A   Overcast
1:15 PM 66.2 °F 57.2 °F 73% 30.01 in 10.0 mi West 4.6 mph - N/A   Overcast
1:35 PM 68.0 °F 57.2 °F 68% 30.01 in 10.0 mi WSW 4.6 mph - N/A   Overcast
1:55 PM 66.2 °F 59.0 °F 78% 30.01 in 10.0 mi SW 3.5 mph - N/A   Overcast
2:15 PM 68.0 °F 59.0 °F 73% 30.00 in 10.0 mi Calm Calm - N/A   Mostly Cloudy
2:35 PM 69.8 °F 59.0 °F 68% 30.00 in 10.0 mi WNW 5.8 mph - N/A   Mostly Cloudy
2:55 PM 69.8 °F 59.0 °F 68% 30.00 in 10.0 mi WSW 3.5 mph - N/A   Scattered Clouds
3:15 PM 69.8 °F 59.0 °F 68% 30.00 in 10.0 mi WSW 5.8 mph - N/A   Scattered Clouds
3:35 PM 69.8 °F 55.4 °F 60% 29.99 in 10.0 mi WSW 5.8 mph - N/A   Scattered Clouds
3:55 PM 71.6 °F 55.4 °F 57% 29.99 in 10.0 mi SSW 3.5 mph - N/A   Scattered Clouds
4:15 PM 71.6 °F 55.4 °F 57% 29.99 in 10.0 mi South 4.6 mph - N/A   Scattered Clouds
4:35 PM 71.6 °F 55.4 °F 57% 29.99 in 10.0 mi Calm Calm - N/A   Clear
4:55 PM 71.6 °F 55.4 °F 57% 29.99 in 10.0 mi SSW 4.6 mph - N/A   Scattered Clouds
5:15 PM 73.4 °F 55.4 °F 53% 29.99 in 10.0 mi ESE 3.5 mph - N/A   Mostly Cloudy
5:35 PM 73.4 °F 55.4 °F 53% 30.00 in 10.0 mi WSW 3.5 mph - N/A   Overcast
5:55 PM 71.6 °F 55.4 °F 57% 30.00 in 10.0 mi Calm Calm - N/A   Mostly Cloudy
6:15 PM 71.6 °F 55.4 °F 57% 30.01 in 10.0 mi Calm Calm - N/A   Overcast
6:35 PM 71.6 °F 55.4 °F 57% 30.01 in 10.0 mi SSW 4.6 mph - N/A   Overcast
6:55 PM 71.6 °F 55.4 °F 57% 30.02 in 10.0 mi SSW 6.9 mph - N/A   Overcast
7:15 PM 69.8 °F 55.4 °F 60% 30.02 in 10.0 mi SSW 5.8 mph - N/A   Mostly Cloudy
7:35 PM 69.8 °F 55.4 °F 60% 30.03 in 10.0 mi SSW 4.6 mph - N/A   Mostly Cloudy
7:55 PM 68.0 °F 55.4 °F 64% 30.03 in 10.0 mi South 5.8 mph - N/A   Scattered Clouds
8:15 PM 68.0 °F 55.4 °F 64% 30.04 in 10.0 mi South 4.6 mph - N/A   Mostly Cloudy
8:35 PM 68.0 °F 55.4 °F 64% 30.04 in 10.0 mi South 4.6 mph - N/A   Overcast
8:55 PM 68.0 °F 55.4 °F 64% 30.05 in 10.0 mi SSE 4.6 mph - N/A   Scattered Clouds
9:15 PM 66.2 °F 55.4 °F 68% 30.06 in 10.0 mi South 4.6 mph - N/A   Scattered Clouds
9:35 PM 66.2 °F 55.4 °F 68% 30.07 in 10.0 mi South 5.8 mph - N/A   Mostly Cloudy
9:55 PM 66.2 °F 55.4 °F 68% 30.07 in 7.0 mi South 6.9 mph - N/A   Overcast
10:15 PM 66.2 °F 55.4 °F 68% 30.08 in 10.0 mi South 5.8 mph - N/A   Overcast
10:35 PM 64.4 °F 55.4 °F 73% 30.08 in 10.0 mi SSE 8.1 mph - N/A   Scattered Clouds
10:55 PM 64.4 °F 55.4 °F 73% 30.09 in 10.0 mi SSE 6.9 mph - N/A   Mostly Cloudy
11:15 PM 62.6 °F 55.4 °F 77% 30.09 in 10.0 mi SE 5.8 mph - N/A   Scattered Clouds
11:35 PM 62.6 °F 55.4 °F 77% 30.09 in 10.0 mi ESE 4.6 mph - N/A   Clear
11:55 PM 60.8 °F 55.4 °F 82% 30.11 in 10.0 mi Calm Calm - N/A   Clear